Flag Weather past 2 weeks in Speyer, Rhineland-Palatinate, Germany

Now
45 °F

Partly sunny.


Feels Like: 42 °F
Forecast: 35 / 42 °F
Wind: 5 mph from East

Location: Baden Wurttemberg - Neuostheim

Current Time: Nov 28, 2014 at 3:06:10 PM

Latest Report: Nov 28, 2014 at 2:20 PM


Visibility: N/A

Pressure: 29.83 "Hg

Humidity: 76%

Dew point: 37 °F

Location of SpeyerLocation

Historic Weather in Speyer — Graph

°F

Speyer temperature yesterday

Maximum temperature yesterday: 46 °F (at 11:50 AM)
Minimum temperature yesterday: 43 °F (at 5:50 AM)
Average temperature yesterday: 45 °F

Past Weeks' High & Low Weather Summary

 TemperatureHumidityPressure
High55 °F (Nov 14, 11:50 AM)100% (Nov 13, 6:20 PM)30.33 "Hg (Nov 13, 6:20 PM)
Low32 °F (Nov 21, 6:50 AM)66% (Nov 21, 11:50 AM)29.59 "Hg (Nov 15, 4:50 PM)
Average46 °F87%29.98 "Hg
* Reported Nov 13 1:20 PM — Nov 28 1:50 PM, Speyer, Weather by CustomWeather, © 2014

Note: Actual official high and low records may vary slightly from our data, if they occured in-between our weather recording intervals... More about our weather records

Advertising

Speyer weather history for previous 24 hours

 ConditionsComfort  
Time TempWeatherWind HumidityBarometerVisibility
1:50 PM
Nov 28
45 °FPartly sunny.5 mph76%29.83 "HgN/A
1:20 PM43 °FBroken clouds.2 mph81%29.83 "HgN/A
12:50 PM43 °FMore clouds than sun.2 mph81%29.86 "HgN/A
12:20 PM43 °FOvercast.3 mph81%29.86 "Hg5 mi
11:50 AM43 °FOvercast.5 mph81%29.86 "Hg4 mi
11:20 AM43 °FOvercast.3 mph81%29.86 "Hg4 mi
10:50 AM41 °FPartly sunny.3 mph81%29.86 "Hg4 mi
10:20 AM41 °FBroken clouds.2 mph87%29.86 "Hg4 mi
9:50 AM37 °FBroken clouds.1 mph100%29.86 "Hg4 mi
9:20 AM37 °FPassing clouds.1 mph100%29.86 "Hg4 mi
8:50 AM36 °FPassing clouds.2 mph93%29.86 "Hg4 mi
8:20 AM36 °FPassing clouds.1 mph100%29.86 "Hg4 mi
7:50 AM36 °FPassing clouds.1 mph100%29.83 "Hg4 mi
7:20 AM36 °FPassing clouds.1 mph100%29.83 "Hg4 mi
6:50 AM36 °FPassing clouds.2 mph100%29.83 "Hg4 mi
6:20 AM34 °FPassing clouds.1 mph100%29.83 "Hg4 mi
5:50 AM36 °FMostly cloudy.2 mph93%29.83 "Hg4 mi
8:50 PM
Nov 27
43 °FClear.3 mph81%29.80 "Hg10 mi
8:20 PM43 °FClear.5 mph87%29.80 "Hg10 mi
7:50 PM45 °FPartly cloudy.3 mph81%29.80 "HgN/A
7:20 PM45 °FPassing clouds.5 mph81%29.80 "HgN/A
6:50 PM45 °FMostly cloudy.3 mph81%29.80 "HgN/A
6:20 PM45 °FOvercast.5 mph81%29.80 "HgN/A
5:50 PM45 °FOvercast.3 mph81%29.80 "HgN/A
5:20 PM45 °FPassing clouds.2 mph87%29.80 "HgN/A
4:50 PM45 °FPartly cloudy.6 mph87%29.80 "HgN/A
4:20 PM46 °FMostly cloudy.5 mph82%29.80 "HgN/A
3:50 PM46 °FPartly sunny.5 mph76%29.80 "HgN/A
Weather by CustomWeather, © 2014

See weather overviewHow to use our weather pages